Location: Boursonne
(49.2024°N, 3.0468°E)
Time: 07:13:49
(UTC+00:00)

Cosmos 1378 - Pass Details

Date: 03 March 2021
Orbit: 489 x 501 km, 82.5° (Epoch: 12 April)

Event Time Altitude Azimuth Distance (km) Brightness Sun altitude
Rises 19:59:13 0° 348° (NNW) 2,604 7.2 -24.2°
Reaches altitude 10° 20:01:22 10° 346° (NNW) 1,713 6.2 -24.5°
Enters shadow 20:04:07 45° 330° (NNW) 688 4.0 -24.9°
